STARLINK-4170 (53140 NORAD) Tracking and Keplerian Element Data

This shows tracking and keplerian element data for the satellite.

Feedback or suggestion? Click here.




ElementValue
Catalog53140
NameSTARLINK-4170
Epoch Orbit130
Epoch Day269.91667824
Epoch Year2022
RAAN69.4694
Inclination53.2185
Eccentricity0.000192
Argument of Perigee40.891
Mean Anonmoly355.8805
Mean Motion15.08811135
Decay Rate0.00048245
L11 53140U 22083J 22269.91667824 .00048245 00000+0 30311-2 0 9994
L22 53140 53.2185 69.4694 0001920 40.8910 355.8805 15.08811135 1302

Live tracking and technical data element details for STARLINK-4170 (NORAD 53140). STARLINK-4170 can be tracked NOW for your location showing map with azimuth and elevation plus other details from your city location.

Track the satellite on the map from your city or location and see movement details for azimuth, elevation, latitude, longitude, range, height, and movement on the map or in text.







IsCatalogInMostPopularTable: catalog: 53140, numindb: 7
Update: records affected: 1



GetName: 53140 STARLINK-4170

Hit Count: updated at: Wed, 28 Sep 2022 21:31:02 GMT